Location: Newark
(48.5178°N, 4.2361°E)
Time: 05:49:10
(UTC+00:00)

ISS - Pass Details

Date: 24 January 2021
Orbit: 417 x 422 km, 51.6° (Epoch: 08 March)

Event Time Altitude Azimuth Distance (km) Brightness Sun altitude
Rises 17:43:10 0° 248° (WSW) 2,366 2.1 -12.2°
Reaches altitude 10° 17:45:16 10° 248° (WSW) 1,504 0.5 -12.5°
Maximum altitude 17:48:39 88° 337° (NNW) 427 -3.8 -13.1°
Enters shadow 17:50:30 25° 68° (ENE) 899 -2.7 -13.4°
